﻿測定場所 (Monitoring sites),日付 (Measurement date),時間 (Measurement time),線量率 最大値 (max) μGy/h,線量率 最小値 (min) μGy/h,線量率 平均値 (average) μGy/h,
調布 (Chofu),2022-10-16,23:01～24:00,0.0288,0.0255,0.0268,
調布 (Chofu),2022-10-16,22:01～23:00,0.0284,0.0246,0.0266,
調布 (Chofu),2022-10-16,21:01～22:00,0.0280,0.0252,0.0265,
調布 (Chofu),2022-10-16,20:01～21:00,0.0285,0.0249,0.0264,
調布 (Chofu),2022-10-16,19:01～20:00,0.0282,0.0247,0.0266,
調布 (Chofu),2022-10-16,18:01～19:00,0.0283,0.0243,0.0265,
調布 (Chofu),2022-10-16,17:01～18:00,0.0280,0.0242,0.0264,
調布 (Chofu),2022-10-16,16:01～17:00,0.0292,0.0240,0.0264,
調布 (Chofu),2022-10-16,15:01～16:00,0.0291,0.0255,0.0268,
調布 (Chofu),2022-10-16,14:01～15:00,0.0293,0.0253,0.0267,
調布 (Chofu),2022-10-16,13:01～14:00,0.0291,0.0251,0.0271,
調布 (Chofu),2022-10-16,12:01～13:00,0.0288,0.0250,0.0272,
調布 (Chofu),2022-10-16,11:01～12:00,0.0289,0.0248,0.0268,
調布 (Chofu),2022-10-16,10:01～11:00,0.0291,0.0257,0.0272,
調布 (Chofu),2022-10-16,09:01～10:00,0.0294,0.0261,0.0273,
調布 (Chofu),2022-10-16,08:01～09:00,0.0291,0.0258,0.0273,
調布 (Chofu),2022-10-16,07:01～08:00,0.0311,0.0257,0.0273,
調布 (Chofu),2022-10-16,06:01～07:00,0.0298,0.0259,0.0279,
調布 (Chofu),2022-10-16,05:01～06:00,0.0298,0.0253,0.0276,
調布 (Chofu),2022-10-16,04:01～05:00,0.0295,0.0256,0.0274,
調布 (Chofu),2022-10-16,03:01～04:00,0.0288,0.0246,0.0269,
調布 (Chofu),2022-10-16,02:01～03:00,0.0288,0.0248,0.0267,
調布 (Chofu),2022-10-16,01:01～02:00,0.0287,0.0244,0.0265,
調布 (Chofu),2022-10-16,00:01～01:00,0.0292,0.0249,0.0264,
調布 (Chofu),2022-10-15,23:01～24:00,0.0283,0.0251,0.0265,
調布 (Chofu),2022-10-15,22:01～23:00,0.0285,0.0249,0.0265,
調布 (Chofu),2022-10-15,21:01～22:00,0.0285,0.0248,0.0265,
調布 (Chofu),2022-10-15,20:01～21:00,0.0304,0.0236,0.0266,
調布 (Chofu),2022-10-15,19:01～20:00,0.0286,0.0251,0.0264,
調布 (Chofu),2022-10-15,18:01～19:00,0.0281,0.0242,0.0263,
調布 (Chofu),2022-10-15,17:01～18:00,0.0276,0.0241,0.0260,
調布 (Chofu),2022-10-15,16:01～17:00,0.0280,0.0242,0.0264,
調布 (Chofu),2022-10-15,15:01～16:00,0.0279,0.0245,0.0263,
調布 (Chofu),2022-10-15,14:01～15:00,0.0285,0.0246,0.0264,
調布 (Chofu),2022-10-15,13:01～14:00,0.0284,0.0250,0.0264,
調布 (Chofu),2022-10-15,12:01～13:00,0.0298,0.0248,0.0265,
調布 (Chofu),2022-10-15,11:01～12:00,0.0282,0.0250,0.0265,
調布 (Chofu),2022-10-15,10:01～11:00,0.0286,0.0248,0.0268,
調布 (Chofu),2022-10-15,09:01～10:00,0.0297,0.0255,0.0270,
調布 (Chofu),2022-10-15,08:01～09:00,0.0296,0.0256,0.0272,
調布 (Chofu),2022-10-15,07:01～08:00,0.0286,0.0253,0.0272,
調布 (Chofu),2022-10-15,06:01～07:00,0.0297,0.0254,0.0272,
調布 (Chofu),2022-10-15,05:01～06:00,0.0295,0.0255,0.0273,
調布 (Chofu),2022-10-15,04:01～05:00,0.0292,0.0250,0.0274,
調布 (Chofu),2022-10-15,03:01～04:00,0.0292,0.0256,0.0272,
調布 (Chofu),2022-10-15,02:01～03:00,0.0290,0.0253,0.0271,
調布 (Chofu),2022-10-15,01:01～02:00,0.0285,0.0246,0.0269,
調布 (Chofu),2022-10-15,00:01～01:00,0.0288,0.0254,0.0268,
調布 (Chofu),2022-10-14,23:01～24:00,0.0280,0.0254,0.0268,
調布 (Chofu),2022-10-14,22:01～23:00,0.0294,0.0250,0.0268,
調布 (Chofu),2022-10-14,21:01～22:00,0.0286,0.0246,0.0268,
調布 (Chofu),2022-10-14,20:01～21:00,0.0286,0.0251,0.0267,
調布 (Chofu),2022-10-14,19:01～20:00,0.0297,0.0249,0.0270,
調布 (Chofu),2022-10-14,18:01～19:00,0.0308,0.0262,0.0282,
調布 (Chofu),2022-10-14,17:01～18:00,0.0323,0.0249,0.0294,
調布 (Chofu),2022-10-14,16:01～17:00,0.0285,0.0250,0.0268,
調布 (Chofu),2022-10-14,15:01～16:00,0.0296,0.0259,0.0273,
調布 (Chofu),2022-10-14,14:01～15:00,0.0291,0.0257,0.0272,
調布 (Chofu),2022-10-14,13:01～14:00,0.0283,0.0246,0.0264,
調布 (Chofu),2022-10-14,12:01～13:00,0.0285,0.0245,0.0265,
調布 (Chofu),2022-10-14,11:01～12:00,0.0296,0.0251,0.0276,
調布 (Chofu),2022-10-14,10:01～11:00,0.0322,0.0268,0.0293,
調布 (Chofu),2022-10-14,09:01～10:00,0.0336,0.0292,0.0312,
調布 (Chofu),2022-10-14,08:01～09:00,0.0361,0.0312,0.0336,
調布 (Chofu),2022-10-14,07:01～08:00,0.0351,0.0297,0.0330,
調布 (Chofu),2022-10-14,06:01～07:00,0.0329,0.0287,0.0308,
調布 (Chofu),2022-10-14,05:01～06:00,0.0314,0.0272,0.0296,
調布 (Chofu),2022-10-14,04:01～05:00,0.0326,0.0272,0.0305,
調布 (Chofu),2022-10-14,03:01～04:00,0.0363,0.0302,0.0336,
調布 (Chofu),2022-10-14,02:01～03:00,0.0364,0.0306,0.0335,
調布 (Chofu),2022-10-14,01:01～02:00,0.0352,0.0313,0.0334,
調布 (Chofu),2022-10-14,00:01～01:00,0.0346,0.0290,0.0317,
調布 (Chofu),2022-10-13,23:01～24:00,0.0328,0.0284,0.0307,
調布 (Chofu),2022-10-13,22:01～23:00,0.0364,0.0295,0.0325,
調布 (Chofu),2022-10-13,21:01～22:00,0.0356,0.0307,0.0333,
調布 (Chofu),2022-10-13,20:01～21:00,0.0339,0.0296,0.0319,
調布 (Chofu),2022-10-13,19:01～20:00,0.0373,0.0305,0.0336,
調布 (Chofu),2022-10-13,18:01～19:00,0.0441,0.0347,0.0389,
調布 (Chofu),2022-10-13,17:01～18:00,0.0438,0.0297,0.0355,
調布 (Chofu),2022-10-13,16:01～17:00,0.0455,0.0348,0.0398,
調布 (Chofu),2022-10-13,15:01～16:00,0.0384,0.0264,0.0313,
調布 (Chofu),2022-10-13,14:01～15:00,0.0307,0.0263,0.0283,
調布 (Chofu),2022-10-13,13:01～14:00,0.0299,0.0261,0.0282,
調布 (Chofu),2022-10-13,12:01～13:00,0.0312,0.0259,0.0288,
調布 (Chofu),2022-10-13,11:01～12:00,0.0306,0.0271,0.0287,
調布 (Chofu),2022-10-13,10:01～11:00,0.0304,0.0257,0.0278,
調布 (Chofu),2022-10-13,09:01～10:00,0.0299,0.0258,0.0280,
調布 (Chofu),2022-10-13,08:01～09:00,0.0314,0.0267,0.0288,
調布 (Chofu),2022-10-13,07:01～08:00,0.0307,0.0262,0.0282,
調布 (Chofu),2022-10-13,06:01～07:00,0.0300,0.0255,0.0278,
調布 (Chofu),2022-10-13,05:01～06:00,0.0291,0.0257,0.0276,
調布 (Chofu),2022-10-13,04:01～05:00,0.0299,0.0250,0.0283,
調布 (Chofu),2022-10-13,03:01～04:00,0.0305,0.0264,0.0286,
調布 (Chofu),2022-10-13,02:01～03:00,0.0313,0.0270,0.0292,
調布 (Chofu),2022-10-13,01:01～02:00,0.0316,0.0266,0.0290,
調布 (Chofu),2022-10-13,00:01～01:00,0.0308,0.0267,0.0285,
調布 (Chofu),2022-10-12,23:01～24:00,0.0295,0.0265,0.0281,
調布 (Chofu),2022-10-12,22:01～23:00,0.0302,0.0256,0.0279,
調布 (Chofu),2022-10-12,21:01～22:00,0.0293,0.0258,0.0276,
調布 (Chofu),2022-10-12,20:01～21:00,0.0298,0.0255,0.0272,
調布 (Chofu),2022-10-12,19:01～20:00,0.0295,0.0260,0.0277,
調布 (Chofu),2022-10-12,18:01～19:00,0.0294,0.0257,0.0276,
調布 (Chofu),2022-10-12,17:01～18:00,0.0293,0.0254,0.0274,
調布 (Chofu),2022-10-12,16:01～17:00,0.0291,0.0256,0.0272,
調布 (Chofu),2022-10-12,15:01～16:00,0.0292,0.0262,0.0274,
調布 (Chofu),2022-10-12,14:01～15:00,0.0297,0.0255,0.0275,
調布 (Chofu),2022-10-12,13:01～14:00,0.0294,0.0255,0.0274,
調布 (Chofu),2022-10-12,12:01～13:00,0.0297,0.0257,0.0275,
調布 (Chofu),2022-10-12,11:01～12:00,0.0297,0.0262,0.0278,
調布 (Chofu),2022-10-12,10:01～11:00,0.0295,0.0257,0.0278,
調布 (Chofu),2022-10-12,09:01～10:00,0.0297,0.0251,0.0279,
調布 (Chofu),2022-10-12,08:01～09:00,0.0307,0.0260,0.0278,
調布 (Chofu),2022-10-12,07:01～08:00,0.0307,0.0260,0.0279,
調布 (Chofu),2022-10-12,06:01～07:00,0.0306,0.0261,0.0279,
調布 (Chofu),2022-10-12,05:01～06:00,0.0295,0.0261,0.0278,
調布 (Chofu),2022-10-12,04:01～05:00,0.0301,0.0261,0.0279,
調布 (Chofu),2022-10-12,03:01～04:00,0.0304,0.0260,0.0277,
調布 (Chofu),2022-10-12,02:01～03:00,0.0296,0.0258,0.0276,
調布 (Chofu),2022-10-12,01:01～02:00,0.0295,0.0246,0.0274,
調布 (Chofu),2022-10-12,00:01～01:00,0.0296,0.0251,0.0273,
調布 (Chofu),2022-10-11,23:01～24:00,0.0289,0.0258,0.0272,
調布 (Chofu),2022-10-11,22:01～23:00,0.0288,0.0254,0.0274,
調布 (Chofu),2022-10-11,21:01～22:00,0.0296,0.0258,0.0275,
調布 (Chofu),2022-10-11,20:01～21:00,0.0297,0.0256,0.0275,
調布 (Chofu),2022-10-11,19:01～20:00,0.0294,0.0245,0.0272,
調布 (Chofu),2022-10-11,18:01～19:00,0.0294,0.0251,0.0272,
調布 (Chofu),2022-10-11,17:01～18:00,0.0295,0.0254,0.0271,
調布 (Chofu),2022-10-11,16:01～17:00,0.0297,0.0253,0.0271,
調布 (Chofu),2022-10-11,15:01～16:00,0.0290,0.0251,0.0271,
調布 (Chofu),2022-10-11,14:01～15:00,0.0287,0.0258,0.0272,
調布 (Chofu),2022-10-11,13:01～14:00,0.0289,0.0252,0.0272,
調布 (Chofu),2022-10-11,12:01～13:00,0.0300,0.0255,0.0276,
調布 (Chofu),2022-10-11,11:01～12:00,0.0297,0.0259,0.0275,
調布 (Chofu),2022-10-11,10:01～11:00,0.0296,0.0255,0.0272,
調布 (Chofu),2022-10-11,09:01～10:00,0.0294,0.0250,0.0274,
調布 (Chofu),2022-10-11,08:01～09:00,0.0297,0.0258,0.0281,
調布 (Chofu),2022-10-11,07:01～08:00,0.0299,0.0262,0.0279,
調布 (Chofu),2022-10-11,06:01～07:00,0.0292,0.0258,0.0274,
調布 (Chofu),2022-10-11,05:01～06:00,0.0299,0.0256,0.0275,
調布 (Chofu),2022-10-11,04:01～05:00,0.0295,0.0254,0.0275,
調布 (Chofu),2022-10-11,03:01～04:00,0.0303,0.0253,0.0273,
調布 (Chofu),2022-10-11,02:01～03:00,0.0294,0.0248,0.0271,
調布 (Chofu),2022-10-11,01:01～02:00,0.0290,0.0249,0.0269,
調布 (Chofu),2022-10-11,00:01～01:00,0.0287,0.0251,0.0267,
調布 (Chofu),2022-10-10,23:01～24:00,0.0286,0.0249,0.0270,
調布 (Chofu),2022-10-10,22:01～23:00,0.0289,0.0241,0.0270,
調布 (Chofu),2022-10-10,21:01～22:00,0.0287,0.0248,0.0267,
調布 (Chofu),2022-10-10,20:01～21:00,0.0289,0.0248,0.0269,
調布 (Chofu),2022-10-10,19:01～20:00,0.0294,0.0239,0.0267,
調布 (Chofu),2022-10-10,18:01～19:00,0.0293,0.0251,0.0268,
調布 (Chofu),2022-10-10,17:01～18:00,0.0287,0.0242,0.0267,
調布 (Chofu),2022-10-10,16:01～17:00,0.0288,0.0252,0.0269,
調布 (Chofu),2022-10-10,15:01～16:00,0.0287,0.0243,0.0266,
調布 (Chofu),2022-10-10,14:01～15:00,0.0292,0.0255,0.0271,
調布 (Chofu),2022-10-10,13:01～14:00,0.0307,0.0251,0.0271,
調布 (Chofu),2022-10-10,12:01～13:00,0.0297,0.0256,0.0273,
調布 (Chofu),2022-10-10,11:01～12:00,0.0285,0.0240,0.0264,
調布 (Chofu),2022-10-10,10:01～11:00,0.0283,0.0245,0.0266,
調布 (Chofu),2022-10-10,09:01～10:00,0.0288,0.0251,0.0268,
調布 (Chofu),2022-10-10,08:01～09:00,0.0283,0.0251,0.0268,
調布 (Chofu),2022-10-10,07:01～08:00,0.0284,0.0245,0.0268,
調布 (Chofu),2022-10-10,06:01～07:00,0.0291,0.0252,0.0272,
調布 (Chofu),2022-10-10,05:01～06:00,0.0329,0.0265,0.0303,
調布 (Chofu),2022-10-10,04:01～05:00,0.0390,0.0311,0.0354,
調布 (Chofu),2022-10-10,03:01～04:00,0.0461,0.0366,0.0407,
調布 (Chofu),2022-10-10,02:01～03:00,0.0440,0.0369,0.0410,
調布 (Chofu),2022-10-10,01:01～02:00,0.0469,0.0366,0.0422,
調布 (Chofu),2022-10-10,00:01～01:00,0.0462,0.0394,0.0429,
